Regional Weather Roundup
Issued by NWS

Home | Current Version | Previous Version | Text Only | Print | Product List | Glossary On
Versions: 1 2 3 4 5 6 7 8 9 10 11 12 13 14 15 16 17 18 19 20 21 22 23 24 25 26 27 28 29 30 31 32 33 34 35 36 37 38 39 40 41 42 43 44 45 46 47 48 49 50
794
ASUS44 KJAN 272010
RWRMS

MISSISSIPPI HOURLY WEATHER ROUNDUP
NATIONAL WEATHER SERVICE JACKSON MS
300 PM CDT FRI MAY 27 2016

NOTE: "FAIR: INDICATES FEW OR NO CLOUDS BELOW 12,000 FEET WITH NO
SIGNIFICANT WEATHER AND/OR OBSTRUCTIONS TO VISIBILITY.

MSZ001>002-007>008-010>013-018>021-025>028-034>036-272100-
NORTHWEST MISSISSIPPI

CITY           SKY/WX    TMP DP  RH WIND       PRES   REMARKS
BATESVILLE     FAIR      81  66  60 S7        29.91S
CLARKSDALE     MOSUNNY   84  70  61 S12G20    29.88S
CLEVELAND      CLOUDY    81  72  74 SE20      29.86F
GREENWOOD      CLOUDY    81  66  60 SE13      29.89F
GREENVILLE     MOSUNNY   82  67  60 S20G35    29.85F
OLIVE BRANCH   CLOUDY    79  72  78 SE13      29.90F
OXFORD         FAIR      79  64  61 SE12G21   29.93F
TUNICA         CLOUDY    79  68  69 S13       29.90R
WINONA         FAIR      83  66  56 S12       29.91S
$$

MSZ003>006-009-014>017-022>024-029>033-037>039-272100-
NORTHEAST MISSISSIPPI

CITY           SKY/WX    TMP DP  RH WIND       PRES   REMARKS
COLUMBUS AFB   CLOUDY    86  65  48 S17G26    29.94F
CORINTH        FAIR      82  63  51 S9G15     29.93F
GOLDN TRIANGLE PTSUNNY   82  63  51 S14G23    29.94F
STARKVILLE     FAIR      86  61  42 S15G26    29.93F
TUPELO         PTSUNNY   86  58  38 SE18G25   29.92F
$$

MSZ040-058-272100-
CENTRAL MISSISSIPPI

CITY           SKY/WX    TMP DP  RH WIND       PRES   REMARKS
JACKSON INTL   CLOUDY    82  67  60 S12       29.92S
JACKSON HAWKNS CLOUDY    82  64  54 S15       29.92S
MADISON        FAIR      81  64  57 S6        29.92R
MERIDIAN KEY   MOSUNNY   88  66  48 SE12G21   29.95F HX  90
MERIDIAN NAS   PTSUNNY   87  61  41 S12G20    29.96F
VICKSBURG TVR  CLOUDY    85  69  58 S15G23    29.89S
VICKSBURG VKS  PTCLDY    86  68  54 SE14G22   29.89S
$$

MSZ059>079-272100-
SOUTH MISSISSIPPI

CITY           SKY/WX    TMP DP  RH WIND       PRES   REMARKS
BROOKHAVEN     FAIR     N/A N/A N/A SE14G20   29.93S
COLUMBIA       FAIR      82  63  51 SE8G15    29.96S
HATTIESBURG    MOSUNNY   86  61  42 S16G24    29.94F
MCCOMB         CLOUDY    82  63  52 SE10      29.92F
NATCHEZ        CLOUDY    82  68  61 S14G24    29.90S
PINE BELT      SUNNY     82  63  51 SE14G25   29.94F
$$

MSZ080>082-272100-
COASTAL MISSISSIPPI

CITY           SKY/WX    TMP DP  RH WIND       PRES   REMARKS
BAY ST LOUIS   MOSUNNY   82  59  44 SE18G24   29.95F
BILOXI         MOSUNNY   84  71  66 SE14      29.95F
PASCAGOULA     MOSUNNY   83  69  62 S14       29.97F
GULFPORT       MOSUNNY   84  70  62 SE20G28   29.94F
$$




USA.gov is the U.S. government's official web portal to all federal, state and local government web resources and services.